Regional Weather Roundup
Issued by NWS

Home | Current Version | Previous Version | Graphics & Text | Print | Product List | Glossary Off
Versions: 1 2 3 4 5 6 7 8 9 10 11 12 13 14 15 16 17 18 19 20 21 22 23 24 25 26 27 28 29 30 31 32 33 34 35 36 37 38 39 40 41 42 43 44 45 46 47 48 49 50

280
ASUS43 KTOP 201208
RWRKS

WEATHER ROUNDUP FOR KANSAS
NATIONAL WEATHER SERVICE GOODLAND KS
700 AM CDT THU JUL 20 2017

NOTE:  "FAIR" INDICATES FEW OR NO CLOUDS BELOW 12,000 FEET WITH NO
SIGNIFICANT WEATHER AND/OR OBSTRUCTIONS TO VISIBILITY.

KSZ001>006-013>018-027>032-041>047-201300-
NORTHWEST KANSAS

CITY           SKY/WX    TMP DP  RH WIND       PRES   REMARKS
GOODLAND       CLEAR     65  58  78 SW5       30.04S
6HR MIN TEMP:  62; 6HR MAX TEMP:  78;

HAYS           CLEAR     76  64  66 S12       30.02S
HILL CITY      CLOUDY    76  63  64 S9        30.00S
6HR MIN TEMP:  75; 6HR MAX TEMP:  83;

RUSSELL        CLEAR     76  65  68 S12       30.01R
6HR MIN TEMP:  76; 6HR MAX TEMP:  84;

$$

KSZ061>065-074>080-084>089-201300-
SOUTHWEST KANSAS

CITY           SKY/WX    TMP DP  RH WIND       PRES   REMARKS
DODGE CITY     CLEAR     75  62  64 S8        30.07R
6HR MIN TEMP:  74; 6HR MAX TEMP:  81;

ELKHART          N/A     72  51  47 SW8         N/A
GARDEN CITY    CLEAR     70  61  73 S7        30.07R
6HR MIN TEMP:  70; 6HR MAX TEMP:  76;

LIBERAL        CLEAR     71  61  70 S13       30.09S
PRATT          CLEAR     72  64  76 S10       30.07R
6HR MIN TEMP:  72; 6HR MAX TEMP:  81;

$$

KSZ066>073-081>083-090>101-201300-
SOUTHEAST KANSAS

CITY           SKY/WX    TMP DP  RH WIND       PRES   REMARKS
CHANUTE        CLEAR     78  72  81 MISG      30.08R
6HR MIN TEMP:  76; 6HR MAX TEMP:  80;

COFFEYVILLE    CLEAR     76  74  93 S6        30.08S
6HR MIN TEMP:  74; 6HR MAX TEMP:  78;

HUTCHINSON     CLEAR     77  68  73 S5        30.05R
6HR MIN TEMP:  77; 6HR MAX TEMP:  83;

MEDICINE LODGE   N/A     76  66  71 SE7       30.05S
NEWTON         CLEAR     79  69  71 S12       30.06S
PARSONS        CLEAR     76  73  91 S3        30.09S
6HR MIN TEMP:  76; 6HR MAX TEMP:  79;

WICHITA INTL   PTCLDY    77  71  82 S10       30.05S
6HR MIN TEMP:  76; 6HR MAX TEMP:  83;

WICHITA JABRA  CLEAR     77  70  79 S7        30.06R
6HR MIN TEMP:  77; 6HR MAX TEMP:  81;

WICHITA MCCONL CLEAR     77  69  76 S8        30.06R
WINFIELD       CLEAR     76  70  82 S8        30.08R
6HR MIN TEMP:  76; 6HR MAX TEMP:  81;

$$

KSZ007>012-019>026-033>040-048>060-102>105-201300-
NORTHEAST KANSAS

CITY           SKY/WX    TMP DP  RH WIND       PRES   REMARKS
CONCORDIA      CLEAR     78  67  68 S13       29.99S
6HR MIN TEMP:  77; 6HR MAX TEMP:  83;

EMPORIA        CLEAR     74  70  87 S9        30.05S
6HR MIN TEMP:  74; 6HR MAX TEMP:  79;

LAWRENCE       CLEAR     77  72  84 E3        30.02S
6HR MIN TEMP:  76; 6HR MAX TEMP:  83;

MANHATTAN      CLEAR     78  70  76 SW6       30.01S
6HR MIN TEMP:  76; 6HR MAX TEMP:  84;

MARYSVILLE     CLOUDY    79  68  69 S8        30.00S
OLATHE IND     CLEAR     77  72  84 S12       30.05S
6HR MIN TEMP:  74; 6HR MAX TEMP:  80;

OLATHE EXE     CLEAR     75  72  90 S7        30.05S
6HR MIN TEMP:  74; 6HR MAX TEMP:  80;

SALINA         CLEAR     81  68  64 S14       30.01R
6HR MIN TEMP:  80; 6HR MAX TEMP:  86;

TOPEKA BILLARD CLEAR     78  73  84 S3        30.02R
6HR MIN TEMP:  76; 6HR MAX TEMP:  83;

TOPEKA FORBES  CLEAR     78  72  81 S8        30.03R
6HR MIN TEMP:  78; 6HR MAX TEMP:  83;

$$




USA.gov is the U.S. government's official web portal to all federal, state and local government web resources and services.